www.pogodaiklimat.ru

Погода и климат >> Архив погоды >> Россия >> Эвенкия >> Кузьмовка


ПОГОДА в Кузьмовке

  • Прогноз погоды в Кузьмовке
  • Монитор погоды в Кузьмовке

АРХИВ ПОГОДЫ в Кузьмовке

Время (UTC), дата Ветер
(напр.,м/с)
 
Видим.   Явления Облачность Т
(С)
Тd
(С)
f
(%)
Тe
(С)
Тes
(С)
Комфортность P
(гПа)
Po
(гПа)
Тmin
(С)
Tmax
(С)
R
(мм)
R24
(мм)
S
(см)
12 17.04 Ю 2 10 км слаб. снег 10/6 600 м
[Sc As op]
+0.8 -4.1 70 -2 -2 1004.6 996.8 +2.1 0.0
15 17.04 Ю 1 20 км {снег} 10/0 2000 м
[As op]
-1.8 -3.3 89 -4 -4 1003.4 995.6
21 17.04 штиль 0 20 км 10/0 2000 м
[Ac As]
-6.5 -7.0 96 -7 -7 999.9 992.0
00 18.04 штиль 0 20 км 8/0 2000 м
[Ac As]
-5.6 -6.3 95 -7 -6 997.7 989.8 -7.0 0.0 81
03 18.04 Ю 1 20 км 10/0 2000 м
[Ac As]
-1.1 -5.4 73 -3 -1 994.6 986.9
06 18.04 В 1 20 км 10/4 600 м
[Sc Ac As]
+3.8 -4.6 54 +3 +5 991.3 983.8
09 18.04 В 1 20 км 10/8 600 м
[Sc As trans]
+5.1 -5.9 45 +5 +5 989.8 982.3
12 18.04 С 3 20 км 10/6 600 м
[Sc As op]
+3.5 -4.3 57 0 0 989.9 982.4 +5.1
15 18.04 С 3 20 км 10/0 2000 м
[As op]
+2.2 -3.4 66 -2 -2 990.2 982.7
21 18.04 СЗ 4 20 км 5/0 2000 м
[Ac und]
-1.3 -7.2 64 -7 -7 995.9 988.2
00 19.04 З 3 20 км 9/3 600 м
[Sc Ac As]
-5.4 -10.0 70 -11 -10 1001.1 993.2 -5.4 78
03 19.04 З 4 4000 м слаб. снег 10/0 2000 м
[As trans]
-7.9 -11.0 78 -15 -13 1004.5 996.5 -8.0
06 19.04 СЗ 5
{11}
10 км слаб. снег {метель} 10/4 600 м
[Cb cap Cs]
-6.3 -11.7 65 -13 -11 1007.0 999.1
09 19.04 З 5
{13}
20 км позёмок {снег} ясно -3.4 -15.3 39 -9 -7 1009.8 1001.9
12 19.04 З 4
{12}
20 км {снег, метель} ясно -2.7 -15.8 36 -8 -7 1011.5 1003.6 -2.5 0.4
15 19.04 ЮВ 1
{11}
20 км 3/0
[Ci fib]
-10.9 -17.2 60 -13 -13 1011.9 1003.8
18 19.04 В 1 20 км 3/0
[Ci fib]
-16.3 -19.7 75 -19 -19 1011.8 1003.6
21 19.04 штиль 0 20 км 4/0
[Ci sp]
-16.9 -20.3 75 -17 -17 1010.6 1002.3
00 20.04 штиль 0 20 км 8/0
[Ac und]
-13.0 -16.5 75 -13 -12 1009.1 1000.9 -17.0 78
03 20.04 Ю 1 10 км слаб. снег 10/0 2000 м
[As trans]
-8.8 -11.7 79 -11 -8 1007.7 999.7
06 20.04 Ю 2 10 км слаб. снег 10/0 2000 м
[As op]
-2.4 -6.4 74 -6 -4 1005.8 998.3
09 20.04 Ю 2 20 км {снег} 9/6 600 м
[Sc Ci sp]
+1.5 +3.3 100 -2 -0 1004.4 996.6
12 20.04 ЮЗ 2 4000 м слаб. снег 10/0 2000 м
[As op]
+1.5 -1.6 80 -2 -2 1003.7 995.9 +3.2 0.0
15 20.04 штиль 0 20 км {снег} 10/8 600 м
[Frnb As op]
-0.6 -1.2 96 -2 -2 1003.3 995.5
21 20.04 штиль 0 10 км слаб. снег 10/0 2000 м
[Ac As]
-3.7 -7.0 78 -5 -5 1001.7 993.9
00 21.04 штиль 0 4000 м слаб. снег 10/0 2000 м
[As op]
-4.5 -6.5 86 -6 -5 1002.0 994.1 -4.5 3 79
03 21.04 Ю 1 10 км слаб. ливневой снег 9/9 600 м
[Cb cap]
-4.3 -7.3 80 -7 -6 1002.3 994.4 -4.7
06 21.04 ЮЗ 2 10 км слаб. ливневой снег 9/9 600 м
[Cb cap]
-3.9 -7.6 75 -8 -7 1003.4 995.5
09 21.04 ЮЗ 3 20 км осадки на расстоянии 10/5 600 м
[Sc As trans]
+3.5 -7.6 44 0 +1 1000.5 972.5
12 21.04 З 3 10 км слаб. ливневой снег 8/8 600 м
[Cb cap]
-3.2 -7.5 72 -8 -8 1007.2 999.3 -1.5 2
15 21.04 Ю 2 4000 м слаб. ливневой снег 10/10 600 м
[Cb cap]
-4.7 -6.0 91 -9 -9 1008.2 1000.3
18 21.04 В 1 20 км {ливн. осадки} 6/3 600 м
[Sc Ci fib]
-10.6 -11.9 90 -13 -13 1010.2 1002.1
21 21.04 штиль 0 20 км 8/3 600 м
[Sc Ci fib]
-13.4 -14.7 90 -13 -13 1012.4 1004.2
00 22.04 штиль 0 20 км 4/0
[Ci fib]
-14.7 -16.7 85 -15 -13 1015.4 1007.1 -16.8 0.9 81
03 22.04 ЮВ 1 20 км 4/0
[Ci fib]
-5.4 -12.4 58 -7 -0 1016.1 1008.1
06 22.04 Ю 2 20 км 8/1 600 м
[Cu hum Ci fib]
+0.2 -11.8 40 -2 +5 1016.0 1008.1
09 22.04 ЮЗ 4 20 км 8/8 600 м
[Sc]
+1.4 -8.2 49 -3 -2 1016.0 1008.2
12 22.04 Ю 4
{11}
10 км слаб. ливневой снег 10/10 600 м
[Cb cap]
+0.5 -4.5 69 -5 -5 1016.6 1008.7 +1.5 0.0
15 22.04 Ю 2 20 км {ливн. осадки} 10/5 600 м
[Sc As op]
-0.9 -2.8 87 -5 -5 1016.4 1008.5
00 23.04 Ю 3 10 км слаб. снег 10/0 2000 м
[As trans]
+0.4 -3.2 77 -4 -4 1013.5 1005.6 -1.6 0.0 80
03 23.04 Ю 4 20 км {снег} 10/4 600 м
[Sc Ac As]
+2.3 -1.7 75 -2 -2 1011.9 1004.2
06 23.04 ЮЗ 4 20 км {снег} 10/10 600 м
[Sc]
+5.4 -2.0 59 +2 +2 1009.8 1002.1
09 23.04 Ю 6
{14}
20 км 10/10 600 м
[Sc]
+7.0 -2.6 50 +3 +3 1009.5 1001.9
12 23.04 Ю 6
{13}
20 км 10/3 600 м
[Sc Ac As]
+7.1 -2.1 52 +3 +3 1009.2 1001.6 +7.5 0.0
15 23.04 ЮВ 3 20 км 10/3 600 м
[Sc Ac As]
+6.5 -3.7 48 +4 +4 1009.3 1001.7
18 23.04 Ю 3 20 км 10/0 2000 м
[Ac As]
+5.9 -4.2 48 +3 +3 1009.2 1001.6
21 23.04 Ю 3 20 км 10/0
[Ac As]
+5.2 -4.1 51 +2 +2 1008.6 1000.9
00 24.04 Ю 3 20 км 10/0 2000 м
[As op]
+4.4 -4.5 52 +1 +2 1008.3 1000.6 +3.4 0.0 74
03 24.04 Ю 3 10 км слаб. дождь 10/0
[As op]
+2.0 +1.2 94 -2 -1 1009.0 1001.2
06 24.04 штиль 0 10 км слаб. дождь 10/6 300 м
[Frnb As op]
+3.2 +1.7 90 +2 +3 1009.4 1001.7
09 24.04 С 1 10 км слаб. ливневой дождь 10/10 300 м
[Cb cap]
+2.5 +0.9 89 +1 +1 1010.1 1002.4

 

Местоположение метеостанции Кузьмовка (Эвенкия, Россия): широта 62.32 долгота 92.12 высота над уровнем моря 62 м.

В архиве по умолчанию представлена погода в Кузьмовке за последнюю неделю. Архивные данные за месяц целиком и за предыдущие месяцы, начиная с января 2011 года, Вы можете получить, выбрав интересующий диапазон дат из раскрывающегося списка и нажав кнопку "Ввод!".


*Определитесь, кто Вы:
робот инопланетянин человек

Внимание! Время в таблицах - всемирное. Для получения местного времени необходимо прибавить поправку, которая равна 7 ч.

Смотрите также архив погоды в соседних городах и на ближайших метеорологических станциях:

Погода в Бору (Красноярский край, Россия) (136 км)
Погода в Вельмо (Красноярский край, Россия) (160 км)
Погода в Бахте (Красноярский край, Россия) (162 км)
Погода в Ворогово (Красноярский край, Россия) (195 км)
Погода в Северо-Енисейском (Красноярский край, Россия) (221 км)
Погода в Тутончанах (Эвенкия, Россия) (225 км)
Погода в Верхнеимбатске (Красноярский край, Россия) (232 км)
Погода в Байките (Эвенкия, Россия) (233 км)
Погода в Ярцево (Красноярский край, Россия) (248 км)
Погода в Сыме (Красноярский край, Россия) (297 км)

Пояснения к столбцам:

Ветер - указаны скорость ветра в м/с - средняя за 10 мин, порывы в срок и между сроками (в фигурных скобках) и направление, откуда дует ветер: С - северный, СВ - северо-восточный, В - восточный, ЮВ - юго-восточный, Ю - южный, ЮЗ - юго-западный, З - западный, СЗ - северо-западный.
Видимость - горизонтальная дальность видимости в метрах или километрах. При видимости от 1 до 10 км при отсутствии осадков обычно наблюдается дымка, при ухудшении видимости до 1 км и менее - туман. В сухую погоду видимость может ухудшаться дымом, пылью или мглою.
Явления - указаны атмосферные явления, наблюдавшиеся в срок или в последний час перед сроком; фигурными скобками обозначены явления, наблюдавшиеся между сроками (за 1-3 часа до срока); квадратными скобками обозначены град или гололедные отложения с указанием их диаметра в мм.
Облачность - указаны через наклонную черту общая и нижняя облачность в баллах и высота нижней границы облаков в метрах; квадратными скобками обозначены формы облаков: Ci - перистые, Cs - перисто-слоистые, Cc - перисто-кучевые, Ac - высококучевые, As - высокослоистые, Sc - слоисто-кучевые, Ns - слоисто-дождевые, Cu - кучевые, Cb - кучево-дождевые. Подробнее классификацию облаков см. в Атласе облаков (PDF).
T - Температура воздуха - температура, измеренная на высоте 2 м над землей.
Td - Температура точки росы - температура, при понижении до которой содержащийся в воздухе водяной пар достигнет насыщения.
f - Относительная влажность воздуха - влажноcть воздуха, измеренная на высоте 2 м над землей.
Te - Эффективная температура - температура, которую ощущает одетый по сезону человек в тени. Характеристика душности погоды. При расчете учитывается влияние влажности воздуха и скорости ветра на теплоощущения человека.
Tes - Эффективная температура на солнце - температура, которую ощущает человек, с поправкой на солнечный нагрев. Характеристика знойности погоды. Зависит от высоты солнца над горизонтом, облачности и скорости ветра. Ночью, в пасмурную погоду, а также при ветре 12 м/с и более поправка равна нулю.
P - Атмосферное давление - приведенное к уровню моря атмосферное давление.
Po - Атмосферное давление - измеренное на уровне метеостанции атмосферное давление.
Tmin - Минимальная температура - минимум температуры воздуха на высоте 2 м над землей.
Tmax - Максимальная температура - максимум температуры воздуха на высоте 2 м над землей.
R - Количество осадков - Количество выпавших осадков за период времени, мм. При наведении курсора мыши на число - период времени, за который выпало указанное количество осадков.
R24 - Количество осадков - Количество выпавших осадков за 24 часа, мм.
S - Снежный покров - Высота снежного покрова, см. При наведении курсора мыши на число - состояние снежного покрова и степень покрытия местности в баллах.